User: anonymous   Login
Location: Twentynine Palms Airport
(34.1316°N, 115.9458°W)
Time: 04:03:59
(UTC-07:00)
Language:

Oscar 19 - Orbit

View from above orbital plane
View from above orbital plane
View from above satellite
View from above satellite

Ground track
Ground track

The orbit data is extracted from the following two-line orbital elements,

1 20442U 90005G   17145.30953190 -.00000005  00000-0  14110-4 0  9991
2 20442 098.5748 082.0574 0011060 210.7494 149.3043 14.32859904428289
Epoch (UTC): 25 May 2017 07:25:43
Eccentricity: 0.0011060
inclination: 98.5748°
perigee height: 774 km
apogee height: 790 km
right ascension of ascending node: 82.0574°
argument of perigee: 210.7494°
revolutions per day: 14.32859904
mean anomaly at epoch: 149.3043°
orbit number at epoch: 42828

The dashed part of the orbit path shows where the satellite is in the earth's shadow,  

DLR